Location: ???????
(55.3754°N, 39.3545°E)
Time: 22:22:29
(UTC+00:00)

Cosmos 1980 Rocket - Pass Details

Date: 14 April 2026
Orbit: 826 x 850 km, 71.0° (Epoch: 13 May)

Event Time Altitude Azimuth Distance (km) Brightness Sun altitude
Rises 22:43:00 0° 325° (NW) 3,422 5.8 -22.8°
Reaches altitude 10° 22:45:28 10° 326° (NW) 2,485 5.0 -22.7°
Maximum altitude 22:51:12 89° 59° (ENE) 859 2.1 -22.4°
Enters shadow 22:54:26 27° 147° (SSE) 1,571 3.3 -22.2°
